Overview Statistics Trail Chart Weather Telemetry Raw packets
 

This is the latest recevied weather packets stored in our database for station/object KF0WJA. If no packets are shown the sender has not sent any weather packets the latest 10 day(s).

<< 84 85 86 87 88 89 90 >>
Time Temp. Humidity Pressure Rain* Wind** Luminosity Snow
1788047085 36.11° C 34% 1014.1 hPa 0 mm - 81 W/m² -
1788046779 36.11° C 34% 1014.3 hPa 0 mm - 169 W/m² -
1788046479 36.11° C 34% 1014.4 hPa 0 mm - 181 W/m² -
1788046178 36.11° C 34% 1014.4 hPa 0 mm - 169 W/m² -
1788045872 36.67° C 33% 1014.5 hPa 0 mm - 188 W/m² -
1788045567 36.67° C 33% 1014.6 hPa 0 mm - 229 W/m² -
1788045263 36.67° C 33% 1014.7 hPa 0 mm - 232 W/m² -
1788044958 36.67° C 33% 1014.6 hPa 0 mm - 257 W/m² -
1788044657 36.67° C 33% 1014.4 hPa 0 mm - 279 W/m² -
1788044356 36.67° C 33% 1014.8 hPa 0 mm - 285 W/m² -
1788044060 36.67° C 34% 1014.5 hPa 0 mm - 278 W/m² -
1788043748 36.67° C 35% 1014.6 hPa 0 mm - 288 W/m² -
1788043443 36.67° C 34% 1014.5 hPa 0 mm - 287 W/m² -
1788043142 36.67° C 34% 1014.6 hPa 0 mm - 255 W/m² -
1788042838 37.22° C 34% 1014.6 hPa 0 mm - 356 W/m² -
1788042536 37.22° C 34% 1014.6 hPa 0 mm - 361 W/m² -
1788042232 37.22° C 33% 1014.7 hPa 0 mm - 384 W/m² -
1788041928 37.78° C 32% 1014.7 hPa 0 mm - 412 W/m² -
1788041623 37.78° C 32% 1014.5 hPa 0 mm - 416 W/m² -
1788041322 37.78° C 32% 1014.6 hPa 0 mm - 423 W/m² -
1788041022 37.78° C 32% 1014.9 hPa 0 mm - 432 W/m² -
1788040720 37.78° C 33% 1014.9 hPa 0 mm - 423 W/m² -
1788040415 37.78° C 31% 1014.9 hPa 0 mm - 441 W/m² -
1788040111 38.33° C 31% 1014.8 hPa 0 mm - 447 W/m² -
1788039806 37.78° C 32% 1015 hPa 0 mm - 443 W/m² -

* Rain latest hour (hover to see other rain measurements)
** Current wind speed in m/s (hover to see current wind gust speed)